Location: Seattle
(47.6064°N, 122.3308°W)
Time: 01:47:59
(UTC-08:00)

A-11 Canister half - Pass Details

Date: 30 November 2020
Orbit: 1524 x 1684 km, 47.3° (Epoch: 27 January)

Event Time Altitude Azimuth Distance (km) Brightness Sun altitude
Rises 12:34:42 0° 291° (WNW) 4,877 11.5 20.1°
Reaches altitude 10° 12:38:22 10° 282° (WNW) 3,864 11.2 20.0°
Maximum altitude 12:46:23 30° 226° (SW) 2,570 11.3 19.7°
Drops below altitude 10° 12:54:12 10° 170° (S) 3,746 12.5 19.4°
Sets 12:57:42 0° 160° (SSE) 4,706 12.5 19.3°
